Hourly Data Report for October 20, 2013

All times are specified in Local Standard Time (LST). Add 1 hour to adjust for Daylight Saving Time where and when it is observed.

IQALUIT CLIMATE
NUNAVUT

63°44'50.000" N
68°32'40.000" W
33.50 m
2402592
71321
XFB

Download Data

Hourly Data (October 2013)
Hourly Data Report for October 20, 2013
Temp Definition
°C
Dew Point Temp Definition
°C
Rel Hum Definition
%
Wind Dir Definition
10's deg

Wind Spd Definition
km/h
Visibility Definition
km
Stn Press Definition
kPa
Hmdx Definition


Wind Chill Definition


Weather Definition


TIME
00:00 0.7 0.7 100 15 9   101.48     LegendNANA
01:00 0.8 0.8 100 15 7   101.50     LegendNANA
02:00 1.0 1.0 100 15 19   101.52     LegendNANA
03:00 0.9 0.9 100 14 17   101.53     LegendNANA
04:00 0.9 0.9 100 14 13   101.54     LegendNANA
05:00 0.8 0.8 100 14 11   101.53     LegendNANA
06:00 0.9 0.9 100 16 6   101.54     LegendNANA
07:00 1.0 1.0 100 12 6   101.54     LegendNANA
08:00 1.1 1.1 100 13 4   101.56     LegendNANA
09:00 1.1 1.1 100 15 6   101.56     LegendNANA
10:00 1.3 1.3 100 13 9   101.56     LegendNANA
11:00 1.8 1.8 100 18 7   101.57     LegendNANA
12:00 1.7 1.7 100 16 15   101.58     LegendNANA
13:00 1.4 1.4 100 14 11   101.59     LegendNANA
14:00 1.3 1.3 100 16 7   101.62     LegendNANA
15:00 1.1 1.1 100 16 7   101.63     LegendNANA
16:00 1.0 1.0 100 14 6   101.63     LegendNANA
17:00 1.1 1.1 100 15 4   101.62     LegendNANA
18:00 1.0 1.0 100 15 4   101.63     LegendNANA
19:00 0.9 0.9 100 11 4   101.65     LegendNANA
20:00 0.8 0.8 100 13 6   101.66     LegendNANA
21:00 0.9 0.9 100 17 6   101.67     LegendNANA
22:00 0.8 0.8 100 15 7   101.66     LegendNANA
23:00 0.7 0.7 100 13 7   101.65     LegendNANA

Notes on Data Quality.

Legend

  • E = Estimated
  • M = Missing
  • NA = Not Available
  • ‡ = Partner data that is not subject to review by the National Climate Archives
Date modified: